View from above orbital plane
|
View from above satellite
|
Ground track
|
The orbit data is extracted from the following two-line orbital elements,
1 33499U 09002H 22175.90276569 .00000506 00000-0 81218-4 0 9995
2 33499 98.2174 58.0720 0007774 296.2005 63.8404 14.76027227721342
Epoch (UTC): | 24 June 2022 21:39:58 |
Eccentricity: | 0.0007774 |
inclination: | 98.2174° |
perigee height: | 636 km |
apogee height: | 647 km |
right ascension of ascending node: | 58.0720° |
argument of perigee: | 296.2005° |
revolutions per day: | 14.76027227 |
mean anomaly at epoch: | 63.8404° |
orbit number at epoch: | 72134 |
The dashed part of the orbit path shows where the satellite is in the earth's shadow,
|
|